Location: Boursonne
(49.2024°N, 3.0468°E)
Time: 03:12:36
(UTC+00:00)

Cosmos 2218 Rocket - Pass Details

Date: 03 March 2021
Orbit: 955 x 1007 km, 82.9° (Epoch: 17 April)

Event Time Altitude Azimuth Distance (km) Brightness Sun altitude
Rises 18:48:30 0° 160° (SSE) 3,722 6.8 -12.9°
Reaches altitude 10° 18:51:11 10° 153° (SSE) 2,778 6.1 -13.3°
Maximum altitude 18:56:59 38° 87° (E) 1,494 4.5 -14.3°
Drops below altitude 10° 19:02:48 10° 22° (NNE) 2,788 6.2 -15.2°
Sets 19:05:30 0° 15° (NNE) 3,738 7.0 -15.7°
